Radioactive Concentration measured by Seawater Radiation Monitor near Fukushima Daiichi Nuclear Power Station
Date,Time,Cs137(Bq/L),Cs134(Bq/L),Total β(Bq/L)
2016/11/28,00:00,0.54,0.071,ND
2016/11/28,00:10,0.54,0.081,8.8
2016/11/28,00:20,0.52,0.094,ND
2016/11/28,00:30,0.52,0.094,ND
2016/11/28,00:40,0.52,0.089,ND
2016/11/28,00:50,0.68,0.059,ND
2016/11/28,01:00,0.53,0.090,ND
2016/11/28,01:10,0.52,0.085,ND
2016/11/28,01:20,0.52,0.081,ND
2016/11/28,01:30,0.65,0.042,ND
2016/11/28,01:40,0.65,0.042,ND
2016/11/28,01:50,0.63,0.045,ND
2016/11/28,02:00,0.61,0.051,ND
2016/11/28,02:10,0.64,0.042,ND
2016/11/28,02:20,0.49,0.073,ND
2016/11/28,02:30,0.47,0.085,ND
2016/11/28,02:40,0.48,0.095,ND
2016/11/28,02:50,0.48,0.10,ND
2016/11/28,03:00,0.51,0.094,ND
2016/11/28,03:10,0.53,0.094,ND
2016/11/28,03:20,0.53,0.095,ND
2016/11/28,03:30,0.53,0.092,ND
2016/11/28,03:40,0.66,0.057,ND
2016/11/28,03:50,0.68,0.051,ND
2016/11/28,04:00,0.67,0.062,ND
2016/11/28,04:10,0.51,0.095,ND
2016/11/28,04:20,0.64,0.069,ND
2016/11/28,04:30,0.50,0.097,ND
2016/11/28,04:40,0.65,0.065,ND
2016/11/28,04:50,0.66,0.055,ND
2016/11/28,05:00,0.54,0.071,ND
2016/11/28,05:10,0.67,0.042,ND
2016/11/28,05:20,0.70,0.033,ND
2016/11/28,05:30,0.73,0.033,ND
2016/11/28,05:40,0.63,0.058,ND
2016/11/28,05:50,0.78,0.037,ND
2016/11/28,06:00,0.76,0.046,ND
2016/11/28,06:10,0.65,0.074,ND
2016/11/28,06:20,0.65,0.079,ND
2016/11/28,06:30,0.65,0.079,ND
2016/11/28,06:40,0.72,0.077,ND
2016/11/28,06:50,0.62,0.081,ND
2016/11/28,07:00,0.62,0.075,ND
2016/11/28,07:10,0.76,0.048,ND
2016/11/28,07:20,0.76,0.053,ND
2016/11/28,07:30,0.63,0.081,ND
2016/11/28,07:40,0.63,0.089,ND
2016/11/28,07:50,0.63,0.097,ND
2016/11/28,08:00,0.64,0.11,10
2016/11/28,08:10,0.66,0.11,12
2016/11/28,08:20,0.65,0.11,14
2016/11/28,08:30,0.78,0.078,13
2016/11/28,08:40,0.66,0.10,14
2016/11/28,08:50,0.67,0.092,12
2016/11/28,09:00,0.66,0.094,8.8
2016/11/28,09:10,0.66,0.084,ND
2016/11/28,09:20,0.65,0.087,ND
2016/11/28,09:30,0.65,0.090,ND
2016/11/28,09:40,0.63,0.10,ND
2016/11/28,09:50,0.61,0.11,ND
2016/11/28,10:00,0.63,0.099,ND
2016/11/28,10:10,0.62,0.10,ND
2016/11/28,10:20,-,-,-
2016/11/28,10:30,-,-,-
2016/11/28,10:40,0.66,0.10,9.0
2016/11/28,10:50,0.66,0.091,9.9
2016/11/28,11:00,0.66,0.097,9.7
2016/11/28,11:10,0.79,0.070,ND
2016/11/28,11:20,0.81,0.059,9.3
2016/11/28,11:30,0.79,0.057,ND
2016/11/28,11:40,0.76,0.053,ND
2016/11/28,11:50,0.71,0.078,ND
2016/11/28,12:00,0.60,0.075,ND
2016/11/28,12:10,0.75,0.049,ND
2016/11/28,12:20,0.72,0.044,ND
2016/11/28,12:30,0.70,0.044,ND
2016/11/28,12:40,0.69,0.051,ND
2016/11/28,12:50,0.69,0.045,ND
2016/11/28,13:00,0.67,0.041,ND
2016/11/28,13:10,0.51,0.075,ND
2016/11/28,13:20,0.49,0.082,ND
2016/11/28,13:30,0.48,0.077,ND
2016/11/28,13:40,0.49,0.060,ND
2016/11/28,13:50,0.49,0.054,ND
2016/11/28,14:00,0.51,0.054,ND
2016/11/28,14:10,0.52,0.054,ND
2016/11/28,14:20,0.53,0.058,ND
2016/11/28,14:30,0.51,0.068,ND
2016/11/28,14:40,0.50,0.081,ND
2016/11/28,14:50,0.50,0.089,ND
2016/11/28,15:00,0.65,0.063,ND
2016/11/28,15:10,0.62,0.065,9.5
2016/11/28,15:20,0.64,0.060,9.0
2016/11/28,15:30,0.67,0.059,ND
2016/11/28,15:40,0.68,0.055,ND
2016/11/28,15:50,0.71,0.054,ND
2016/11/28,16:00,0.55,0.085,ND
2016/11/28,16:10,0.59,0.083,ND
2016/11/28,16:20,0.59,0.076,ND
2016/11/28,16:30,0.60,0.078,ND
2016/11/28,16:40,0.63,0.079,ND
2016/11/28,16:50,0.63,0.079,ND
2016/11/28,17:00,0.68,0.075,ND
2016/11/28,17:10,0.67,0.085,ND
2016/11/28,17:20,0.67,0.097,ND
2016/11/28,17:30,0.71,0.085,ND
2016/11/28,17:40,0.73,0.080,ND
2016/11/28,17:50,0.73,0.086,ND
2016/11/28,18:00,0.73,0.090,ND
2016/11/28,18:10,0.76,0.092,ND
2016/11/28,18:20,0.78,0.090,ND
2016/11/28,18:30,0.76,0.094,ND
2016/11/28,18:40,0.72,0.11,ND
2016/11/28,18:50,0.71,0.11,ND
2016/11/28,19:00,0.71,0.11,ND
2016/11/28,19:10,0.70,0.11,ND
2016/11/28,19:20,0.71,0.11,ND
2016/11/28,19:30,0.71,0.11,ND
2016/11/28,19:40,0.85,0.070,ND
2016/11/28,19:50,0.86,0.072,ND
2016/11/28,20:00,0.86,0.064,ND
2016/11/28,20:10,0.86,0.075,ND
2016/11/28,20:20,0.71,0.11,ND
2016/11/28,20:30,0.76,0.11,ND
2016/11/28,20:40,0.81,0.11,ND
2016/11/28,20:50,0.83,0.12,ND
2016/11/28,21:00,0.85,0.12,ND
2016/11/28,21:10,1.0,0.094,ND
2016/11/28,21:20,1.0,0.091,ND
2016/11/28,21:30,1.0,0.093,9.9
2016/11/28,21:40,1.0,0.096,ND
2016/11/28,21:50,1.1,0.085,ND
2016/11/28,22:00,1.1,0.086,ND
2016/11/28,22:10,0.90,0.11,ND
2016/11/28,22:20,1.1,0.080,ND
2016/11/28,22:30,1.0,0.077,ND
2016/11/28,22:40,1.0,0.075,ND
2016/11/28,22:50,0.88,0.094,ND
2016/11/28,23:00,0.88,0.087,ND
2016/11/28,23:10,0.84,0.083,ND
2016/11/28,23:20,0.79,0.084,ND
2016/11/28,23:30,0.90,0.062,ND
2016/11/28,23:40,0.87,0.061,ND
2016/11/28,23:50,0.84,0.068,ND
